Location: Eldred Sherwood Park Lake Dam
(42.9416°N, 93.5655°W)
Time: 11:31:36
(UTC+00:00)

Explorer 11/Cluster Stage 4 - Pass Details

Date: 12 December 2025
Orbit: 463 x 1180 km, 28.8° (Epoch: 13 January)

Event Time Altitude Azimuth Distance (km) Brightness Sun altitude
Rises 01:33:28 0° 223° (SW) 3,904 10.8 -30.8°
Reaches altitude 10° 01:37:30 10° 204° (SSW) 2,834 9.7 -31.6°
Enters shadow 01:40:32 16° 179° (S) 2,326 9.0 -32.1°
